SCP
0 0 0 0 0 0 0 0 0 0 0 0 0 0 0 0 0 0 0 0 0 0 0 0 0 0 0 0 0 0 0 0 0 0 0 0 0 0 0 0 0 0 0
0 0 0 0 0 0 0 0 0 0 0 0 0 0 0 0 0 0 0 0 0 0 0 0 0 0 0 0 0 0 0 0 0 0 0 0 0 0 0 0 0 0 0
0 0 0 0 0 0 0 0 0 0 0 0 0 0 0 0 0 0 0 0 0 0 0 0 0 0 0 0 0 0 0 0 0 0 0 0 0 0 0 0 0 0 0
0 0 0 0 0 0 0 0 0 0 0 0 0 0 0 0 0 0 0 0 0 0 0 0 0 0 0 0 0 0 0 0 0 0 0 0 0 0 0 0 0 0 0
0 0 0 0 0 0 0 0 0 0 0 0 0 0 0 0 0 0 0 0 0 0 0 0 0 0 0 0 0 0 0 0 0 0 0 0 0 0 0 0 0 0 0
0 0 0 0 0 0 0 0 0 0 0 0 0 0 0 0 0 0 0 0 0 0 0 0 0 0 0 0 0 0 0 0 0 0 0 0 0 0 0 0 0 0 0
0 0 0 0 0 0 0 0 0 0 0 0 0 0 0 0 0 0 0 0 0 0 0 0 0 0 0 0 0 0 0 0 0 0 0 0 0 0 0 0 0 0 0
0 0 0 0 0 0 0 0 0 0 0 0 0 0 0 0 0 0 0 0 0 0 0 0 0 0 0 0 0 0 0 0 0 0 0 0 0 0 0 0 0 0 0
0 0 0 0 0 0 0 0 0 0 0 0 0 0 0 0 0 0 0 0 0 0 0 0 0 0 0 0 0 0 0 0 0 0 0 0 0 0 0 0 0 0 0
0 0 0 0 0 0 0 0 0 0 0 0 0 0 0 0 0 0 0 0 0 0 0 0 0 0 0 0 0 0 0 0 0 0 0 0 0 0 0 0 0 0 0
0 0 0 0 0 0 0 0 0 0 0 0 0 0 0 0 0 0 0 0 0 0 0 0 0 0 0 0 0 0 0 0 0 0 0 0 0 0 0 0 0 0 0
0 0 0 0 0 0 0 0 0 0 0 0 0 0 0 0 0 0 0 0 0 0 0 0 0 0 0 0 0 0 0 0 0 0 0 0 0 0 0 0 0 0 0
0 0 0 0 0 0 0 0 0 0 0 0 0 0 0 0 0 0 0 0 0 0 0 0 0 0 0 0 0 0 0 0 0 0 0 0 0 0 0 0 0 0 0
0 0 0 0 0 0 0 0 0 0 0 0 0 0 0 0 0 0 0 0 0 0 0 0 0 0 0 0 0 0 0 0 0 0 0 0 0 0 0 0 0 0 0
0 0 0 0 0 0 0 0 0 0 0 0 0 0 0 0 0 0 0 0 0 0 0 0 0 0 0 0 0 0 0 0 0 0 0 0 0 0 0 0 0 0 0
0 0 0 0 -0 -0 0 0 0 0 0 0 0 0 0 0 0 0 0 0 0 0 0 0 0 0 0 0 0 0 0 0 0 0 0 0 0 0 0 0 0 0 0
-0 -0 -0 0 0 0 0 0 0 0 0 0 0 0 0 0 0 0 0 0 0 0 0 0 0 0 0 0 0 0 0 0 0 0 0 0 0 0 0 0 0 0 0
0 0 0 0 0 0 0 0 0 0 0 0 0 0 0 0 0 0 0 0 0 0 0 0 0 0 0 0 0 0 0 0 0 0 0 0 0 0 0 0 0 0 0
0 0 0 0 0 0 0 0 0 0 0 0 0 0 0 0 0 0 0 0 0 0 0 0 0 0 0 0 0 0 0 0 0 0 0 0 0 0 0 0 0 0 0
0 0 0 0 0 0 0 0 0 0 0 0 0 0 0 0 0 0 0 0 0 0 0 0 0 0 0 0 0 0 0 0 0 0 0 0 0 0 0 0 0 0 0
0 0 0 0 0 0 0 0 0 0 0 0 0 0 0 0 0 0 0 0 0 0 0 0 0 0 0 0 0 0 0 0 0 0 0 0 0 0 0 0 0 0 0
0 0 0 0 0 0 0 0 0 0 0 0 0 0 0 0 0 0 0 0 0 0 0 0 0 0 0 0 0 0 0 0 0 0 0 0 0 0 0 0 0 0 0
0 0 0 0 0 0 0 0 0 0 0 0 0 0 0 0 0 0 0 0 0 0 0 0 0 0 0 0 0 0 0 0 0 0 0 0 0 0 0 0 0 0 0
0 0 0 0 0 0 0 0 0 0 0 0 0 0 0 0 0 0 0 0 0 0 0 0 0 0 0 0 0 0 0 0 0 0 0 0 0 0 0 0 0 0 0
0 0 0 0 0 0 0 0 0 0 0 0 0 0 0 0 0 0 0 0 0 0 0 0 0 0 0 0 0 0 0 0 0 0 0 0 0 0 0 0 0 0 0
0 0 0 0 0 0 0 0 0 0 0 0 0 0 0 0 0 0 0 0 0 0 0 0 0 0 0 0 0 0 0 0 0 0 0 0 0 0 0 0 0 0 0
Wind_Speed_500mb
34 26 25 23 20 14 15 16 16 16 15 14 15 16 15 14 13 14 16 19 18 18 19 15 14 11 5 14 11 20 23 21 14 11 10 11 12 14 18 24 29 33 36
26 25 25 24 24 20 18 18 16 15 15 14 18 18 19 18 17 17 17 19 17 18 16 13 9 5 10 14 12 22 23 17 13 11 10 11 12 14 18 22 27 31 36
30 28 28 26 22 20 18 22 20 21 21 19 20 19 20 22 21 19 18 21 20 20 14 11 8 6 14 13 18 19 17 16 14 12 12 12 14 15 19 23 27 31 32
30 29 29 26 23 19 24 24 23 22 22 21 22 22 23 25 18 21 27 23 22 23 17 11 9 15 15 17 15 12 17 17 16 15 14 15 16 17 20 23 26 29 31
30 29 27 25 21 28 27 25 24 25 26 25 23 20 23 23 26 28 25 28 24 21 20 10 14 18 15 21 12 10 19 16 15 15 15 16 18 20 22 23 24 26 29
31 32 32 31 29 30 30 30 25 26 23 23 26 27 26 26 34 32 30 29 26 23 19 15 18 24 23 20 12 17 17 16 16 17 17 17 18 20 21 20 22 22 27
31 31 33 34 33 32 33 32 30 25 32 35 35 32 33 37 37 31 29 32 27 22 19 18 26 29 30 22 21 20 22 18 19 18 19 19 21 21 20 19 18 24 25
36 34 33 30 31 34 34 32 30 37 39 38 43 37 27 26 30 31 32 25 24 25 24 23 28 25 25 25 28 26 21 22 23 24 20 20 21 20 17 10 23 21 25
34 35 37 36 34 37 38 36 38 43 50 50 48 41 19 19 30 31 33 32 27 25 28 28 34 30 30 29 34 22 29 25 28 25 22 22 24 23 24 19 17 21 21
35 38 39 39 41 42 42 42 43 51 58 61 55 54 49 31 15 13 20 20 23 28 30 30 33 23 27 30 27 28 31 32 29 23 23 21 20 20 18 18 24 20 18
28 32 36 39 40 39 41 45 27 12 9 12 9 17 7 14 14 21 15 24 26 31 33 25 30 30 32 32 28 31 33 25 24 26 23 21 18 17 21 24 18 19 22
27 24 27 24 19 15 8 14 17 19 32 21 14 7 11 16 20 21 18 14 25 25 27 30 33 34 36 32 29 29 24 29 28 24 20 17 19 20 18 19 23 25 24
16 17 6 12 10 8 8 13 12 18 13 19 12 14 11 18 22 23 17 18 25 25 25 26 32 35 36 29 27 27 29 27 29 22 18 18 20 17 20 23 23 23 25
19 18 20 20 14 17 14 12 20 11 12 12 13 7 4 24 34 31 22 20 16 19 23 29 26 28 28 26 29 27 27 27 22 20 18 19 18 20 22 22 23 24 25
27 22 20 24 22 21 23 24 19 21 23 23 24 26 26 25 23 24 20 19 17 17 24 22 22 25 25 26 26 24 27 19 20 19 16 18 18 20 20 20 23 25 24
21 12 15 19 23 21 24 21 20 18 15 14 16 17 19 18 19 20 22 21 19 19 18 25 27 23 22 19 24 20 19 18 16 16 15 17 18 19 21 23 24 24 24
9 12 13 14 15 15 16 14 11 11 12 13 14 16 18 18 15 13 14 13 15 19 24 22 21 19 23 22 17 19 20 14 14 15 16 15 15 17 19 22 24 25 24
13 11 10 12 13 12 11 12 14 14 13 13 16 14 12 11 10 11 11 12 15 19 23 24 20 18 18 18 19 19 19 16 15 15 13 12 14 18 20 22 23 23 21
16 15 13 12 11 10 9 10 11 10 11 14 14 12 12 10 12 12 13 16 18 18 21 23 22 20 18 18 18 19 19 15 14 14 10 13 14 18 20 23 22 19 21
15 14 15 13 14 15 15 15 15 16 15 16 14 13 14 12 14 15 19 24 23 21 22 21 23 21 21 20 22 19 18 17 14 12 11 14 15 17 18 23 18 16 23
19 19 19 19 20 19 19 18 17 17 19 19 18 16 16 14 16 25 27 24 21 21 20 21 22 22 19 22 21 19 21 19 13 14 12 15 15 15 19 21 18 17 25
24 25 25 25 25 24 23 24 25 25 24 22 21 21 18 20 21 25 24 23 23 22 22 22 21 20 20 19 19 21 19 20 17 13 14 15 12 15 17 19 18 16 28
22 22 23 24 25 25 25 26 26 27 26 25 24 23 24 25 27 25 24 24 23 23 24 22 22 20 19 22 19 18 18 19 20 15 13 15 12 15 18 18 15 17 29
26 26 26 27 29 29 29 29 29 28 28 27 27 25 25 27 27 26 25 23 22 22 19 18 17 16 20 18 16 18 17 19 17 14 13 11 10 14 17 12 8 13 24
29 30 32 32 32 30 29 29 28 27 27 26 25 28 30 29 28 28 25 25 23 19 14 14 15 18 18 17 20 17 18 18 16 13 11 9 9 11 9 5 8 19 18
33 35 36 37 37 37 35 33 30 28 27 29 31 31 30 29 26 28 28 26 21 17 14 15 17 20 20 18 18 18 17 15 14 11 9 9 7 7 5 4 12 15 23
Wind_Direction_500mb
208 219 220 222 235 230 245 245 256 261 262 263 264 265 262 263 272 270 272 285 305 320 327 318 317 323 230 205 294 343 343 334 332 333 340 346 354 2 8 9 8 5 3
213 220 219 227 229 228 238 257 249 259 267 269 271 268 262 258 255 269 278 280 295 315 319 313 305 289 185 209 297 321 332 330 325 327 329 333 343 354 3 5 2 3 359
216 224 226 226 229 227 237 235 251 259 261 260 263 274 264 258 258 257 260 276 287 306 304 287 261 225 207 272 303 328 330 332 326 323 324 328 332 346 356 358 358 358 359
221 226 226 225 223 225 229 234 236 241 248 252 257 259 267 267 266 255 265 260 273 284 285 272 246 223 238 289 304 324 341 333 327 323 322 325 330 345 351 354 349 355 356
226 228 232 227 222 231 237 249 252 255 257 259 261 251 254 256 265 253 256 258 270 266 269 259 228 251 261 275 280 322 309 312 313 313 318 325 330 338 340 345 352 357 358
236 236 235 230 227 230 235 242 251 249 257 265 261 257 251 246 249 259 263 261 258 248 243 240 231 234 238 234 262 278 289 300 310 313 314 316 323 327 336 346 353 3 2
246 243 241 234 235 236 240 243 243 257 265 263 258 257 252 253 254 251 250 254 246 246 243 242 229 239 250 260 272 271 280 299 301 304 305 312 318 324 329 352 4 356 3
240 242 241 241 237 245 251 248 256 264 262 255 252 255 254 234 220 252 250 255 245 241 231 237 238 240 257 260 272 273 282 288 297 298 303 309 310 316 329 331 347 4 360
237 237 241 241 242 245 251 252 255 258 258 255 253 247 208 206 215 212 226 238 238 242 242 241 226 241 256 273 271 277 293 297 295 294 300 298 302 307 313 348 357 360 4
233 237 243 244 243 248 254 255 265 269 266 261 260 252 249 242 183 174 237 237 233 238 236 227 256 234 262 261 276 294 290 295 290 288 295 293 304 314 321 337 332 11 6
239 245 244 245 249 256 259 257 240 334 33 330 58 36 45 336 320 273 238 235 240 245 238 239 247 262 266 266 263 274 279 283 282 298 302 307 307 308 308 320 348 1 352
253 256 243 225 226 231 252 257 272 290 313 305 342 339 4 336 306 289 248 238 243 235 241 252 260 265 263 259 272 277 276 280 284 304 303 310 305 307 314 319 332 339 351
150 81 135 72 79 345 335 339 355 351 335 1 6 33 33 294 283 285 273 255 227 238 241 266 261 262 257 266 270 278 285 285 299 298 307 303 306 314 312 318 324 330 332
67 45 15 8 1 8 3 344 19 343 20 9 24 98 212 266 272 272 267 252 239 249 259 263 262 253 256 265 272 278 285 294 291 299 305 300 318 315 320 323 328 327 330
55 35 7 358 341 336 321 317 308 280 280 281 279 277 266 257 253 257 258 260 269 276 272 256 254 267 268 272 271 285 282 282 290 299 308 320 320 317 321 323 326 327 330
45 345 320 300 286 285 288 289 287 286 274 270 268 261 259 256 256 263 264 262 267 254 254 258 262 267 266 258 267 273 274 281 290 304 311 314 315 318 322 324 324 328 327
319 303 297 289 279 273 273 279 280 274 263 253 250 245 252 258 267 276 282 288 282 273 259 255 261 268 261 257 265 262 269 276 293 299 301 313 314 311 315 317 323 327 329
353 343 325 312 300 288 277 271 262 257 255 256 254 248 253 270 287 293 297 302 291 276 265 259 258 261 267 261 250 255 265 281 273 285 298 310 305 307 313 315 324 324 336
6 3 358 351 338 324 317 309 309 304 291 277 272 275 282 299 305 315 318 313 306 291 279 277 271 265 258 251 250 251 259 263 272 277 287 293 295 304 307 314 325 333 345
11 8 6 358 349 348 342 337 328 315 293 282 286 296 304 315 321 320 322 319 306 295 291 277 267 255 249 246 241 247 255 262 266 278 280 281 292 297 310 314 329 340 346
357 355 352 348 342 337 329 320 308 302 298 299 294 292 299 301 310 314 310 302 296 288 277 271 261 254 247 240 240 245 250 262 274 264 272 281 292 307 313 322 321 330 342
353 349 345 339 333 328 321 312 306 301 293 286 285 291 292 302 312 310 305 301 293 284 276 267 258 254 243 237 243 247 253 254 254 252 262 288 290 297 306 309 297 311 334
341 335 328 321 318 316 311 304 298 293 289 286 283 284 293 300 305 304 301 296 291 282 270 265 261 255 251 250 244 250 243 246 252 263 275 285 277 295 306 304 288 303 328
339 331 323 317 313 309 304 301 296 290 288 289 291 296 299 301 299 297 294 292 287 278 266 255 255 263 256 257 258 245 241 242 249 261 270 275 277 289 302 290 303 315 327
334 326 319 311 304 300 293 286 280 275 274 277 283 291 293 294 293 292 288 287 274 267 252 247 262 261 263 250 244 244 244 253 263 257 263 267 272 297 285 268 320 328 331
332 323 316 310 303 299 294 287 279 271 271 283 287 287 289 290 290 291 287 276 270 261 258 257 259 258 251 248 246 245 251 263 275 281 241 278 280 315 250 243 322 328 338
Wind_Speed_850mb
34 26 25 23 20 14 15 16 16 16 15 14 15 16 15 14 13 14 16 19 18 18 19 15 14 11 5 14 11 20 23 21 14 11 10 11 12 14 18 24 29 33 36
26 25 25 24 24 20 18 18 16 15 15 14 18 18 19 18 17 17 17 19 17 18 16 13 9 5 10 14 12 22 23 17 13 11 10 11 12 14 18 22 27 31 36
30 28 28 26 22 20 18 22 20 21 21 19 20 19 20 22 21 19 18 21 20 20 14 11 8 6 14 13 18 19 17 16 14 12 12 12 14 15 19 23 27 31 32
30 29 29 26 23 19 24 24 23 22 22 21 22 22 23 25 18 21 27 23 22 23 17 11 9 15 15 17 15 12 17 17 16 15 14 15 16 17 20 23 26 29 31
30 29 27 25 21 28 27 25 24 25 26 25 23 20 23 23 26 28 25 28 24 21 20 10 14 18 15 21 12 10 19 16 15 15 15 16 18 20 22 23 24 26 29
31 32 32 31 29 30 30 30 25 26 23 23 26 27 26 26 34 32 30 29 26 23 19 15 18 24 23 20 12 17 17 16 16 17 17 17 18 20 21 20 22 22 27
31 31 33 34 33 32 33 32 30 25 32 35 35 32 33 37 37 31 29 32 27 22 19 18 26 29 30 22 21 20 22 18 19 18 19 19 21 21 20 19 18 24 25
36 34 33 30 31 34 34 32 30 37 39 38 43 37 27 26 30 31 32 25 24 25 24 23 28 25 25 25 28 26 21 22 23 24 20 20 21 20 17 10 23 21 25
34 35 37 36 34 37 38 36 38 43 50 50 48 41 19 19 30 31 33 32 27 25 28 28 34 30 30 29 34 22 29 25 28 25 22 22 24 23 24 19 17 21 21
35 38 39 39 41 42 42 42 43 51 58 61 55 54 49 31 15 13 20 20 23 28 30 30 33 23 27 30 27 28 31 32 29 23 23 21 20 20 18 18 24 20 18
28 32 36 39 40 39 41 45 27 12 9 12 9 17 7 14 14 21 15 24 26 31 33 25 30 30 32 32 28 31 33 25 24 26 23 21 18 17 21 24 18 19 22
27 24 27 24 19 15 8 14 17 19 32 21 14 7 11 16 20 21 18 14 25 25 27 30 33 34 36 32 29 29 24 29 28 24 20 17 19 20 18 19 23 25 24
16 17 6 12 10 8 8 13 12 18 13 19 12 14 11 18 22 23 17 18 25 25 25 26 32 35 36 29 27 27 29 27 29 22 18 18 20 17 20 23 23 23 25
19 18 20 20 14 17 14 12 20 11 12 12 13 7 4 24 34 31 22 20 16 19 23 29 26 28 28 26 29 27 27 27 22 20 18 19 18 20 22 22 23 24 25
27 22 20 24 22 21 23 24 19 21 23 23 24 26 26 25 23 24 20 19 17 17 24 22 22 25 25 26 26 24 27 19 20 19 16 18 18 20 20 20 23 25 24
21 12 15 19 23 21 24 21 20 18 15 14 16 17 19 18 19 20 22 21 19 19 18 25 27 23 22 19 24 20 19 18 16 16 15 17 18 19 21 23 24 24 24
9 12 13 14 15 15 16 14 11 11 12 13 14 16 18 18 15 13 14 13 15 19 24 22 21 19 23 22 17 19 20 14 14 15 16 15 15 17 19 22 24 25 24
13 11 10 12 13 12 11 12 14 14 13 13 16 14 12 11 10 11 11 12 15 19 23 24 20 18 18 18 19 19 19 16 15 15 13 12 14 18 20 22 23 23 21
16 15 13 12 11 10 9 10 11 10 11 14 14 12 12 10 12 12 13 16 18 18 21 23 22 20 18 18 18 19 19 15 14 14 10 13 14 18 20 23 22 19 21
15 14 15 13 14 15 15 15 15 16 15 16 14 13 14 12 14 15 19 24 23 21 22 21 23 21 21 20 22 19 18 17 14 12 11 14 15 17 18 23 18 16 23
19 19 19 19 20 19 19 18 17 17 19 19 18 16 16 14 16 25 27 24 21 21 20 21 22 22 19 22 21 19 21 19 13 14 12 15 15 15 19 21 18 17 25
24 25 25 25 25 24 23 24 25 25 24 22 21 21 18 20 21 25 24 23 23 22 22 22 21 20 20 19 19 21 19 20 17 13 14 15 12 15 17 19 18 16 28
22 22 23 24 25 25 25 26 26 27 26 25 24 23 24 25 27 25 24 24 23 23 24 22 22 20 19 22 19 18 18 19 20 15 13 15 12 15 18 18 15 17 29
26 26 26 27 29 29 29 29 29 28 28 27 27 25 25 27 27 26 25 23 22 22 19 18 17 16 20 18 16 18 17 19 17 14 13 11 10 14 17 12 8 13 24
29 30 32 32 32 30 29 29 28 27 27 26 25 28 30 29 28 28 25 25 23 19 14 14 15 18 18 17 20 17 18 18 16 13 11 9 9 11 9 5 8 19 18
33 35 36 37 37 37 35 33 30 28 27 29 31 31 30 29 26 28 28 26 21 17 14 15 17 20 20 18 18 18 17 15 14 11 9 9 7 7 5 4 12 15 23
Wind_Direction_850mb
208 219 220 222 235 230 245 245 256 261 262 263 264 265 262 263 272 270 272 285 305 320 327 318 317 323 230 205 294 343 343 334 332 333 340 346 354 2 8 9 8 5 3
213 220 219 227 229 228 238 257 249 259 267 269 271 268 262 258 255 269 278 280 295 315 319 313 305 289 185 209 297 321 332 330 325 327 329 333 343 354 3 5 2 3 359
216 224 226 226 229 227 237 235 251 259 261 260 263 274 264 258 258 257 260 276 287 306 304 287 261 225 207 272 303 328 330 332 326 323 324 328 332 346 356 358 358 358 359
221 226 226 225 223 225 229 234 236 241 248 252 257 259 267 267 266 255 265 260 273 284 285 272 246 223 238 289 304 324 341 333 327 323 322 325 330 345 351 354 349 355 356
226 228 232 227 222 231 237 249 252 255 257 259 261 251 254 256 265 253 256 258 270 266 269 259 228 251 261 275 280 322 309 312 313 313 318 325 330 338 340 345 352 357 358
236 236 235 230 227 230 235 242 251 249 257 265 261 257 251 246 249 259 263 261 258 248 243 240 231 234 238 234 262 278 289 300 310 313 314 316 323 327 336 346 353 3 2
246 243 241 234 235 236 240 243 243 257 265 263 258 257 252 253 254 251 250 254 246 246 243 242 229 239 250 260 272 271 280 299 301 304 305 312 318 324 329 352 4 356 3
240 242 241 241 237 245 251 248 256 264 262 255 252 255 254 234 220 252 250 255 245 241 231 237 238 240 257 260 272 273 282 288 297 298 303 309 310 316 329 331 347 4 360
237 237 241 241 242 245 251 252 255 258 258 255 253 247 208 206 215 212 226 238 238 242 242 241 226 241 256 273 271 277 293 297 295 294 300 298 302 307 313 348 357 360 4
233 237 243 244 243 248 254 255 265 269 266 261 260 252 249 242 183 174 237 237 233 238 236 227 256 234 262 261 276 294 290 295 290 288 295 293 304 314 321 337 332 11 6
239 245 244 245 249 256 259 257 240 334 33 330 58 36 45 336 320 273 238 235 240 245 238 239 247 262 266 266 263 274 279 283 282 298 302 307 307 308 308 320 348 1 352
253 256 243 225 226 231 252 257 272 290 313 305 342 339 4 336 306 289 248 238 243 235 241 252 260 265 263 259 272 277 276 280 284 304 303 310 305 307 314 319 332 339 351
150 81 135 72 79 345 335 339 355 351 335 1 6 33 33 294 283 285 273 255 227 238 241 266 261 262 257 266 270 278 285 285 299 298 307 303 306 314 312 318 324 330 332
67 45 15 8 1 8 3 344 19 343 20 9 24 98 212 266 272 272 267 252 239 249 259 263 262 253 256 265 272 278 285 294 291 299 305 300 318 315 320 323 328 327 330
55 35 7 358 341 336 321 317 308 280 280 281 279 277 266 257 253 257 258 260 269 276 272 256 254 267 268 272 271 285 282 282 290 299 308 320 320 317 321 323 326 327 330
45 345 320 300 286 285 288 289 287 286 274 270 268 261 259 256 256 263 264 262 267 254 254 258 262 267 266 258 267 273 274 281 290 304 311 314 315 318 322 324 324 328 327
319 303 297 289 279 273 273 279 280 274 263 253 250 245 252 258 267 276 282 288 282 273 259 255 261 268 261 257 265 262 269 276 293 299 301 313 314 311 315 317 323 327 329
353 343 325 312 300 288 277 271 262 257 255 256 254 248 253 270 287 293 297 302 291 276 265 259 258 261 267 261 250 255 265 281 273 285 298 310 305 307 313 315 324 324 336
6 3 358 351 338 324 317 309 309 304 291 277 272 275 282 299 305 315 318 313 306 291 279 277 271 265 258 251 250 251 259 263 272 277 287 293 295 304 307 314 325 333 345
11 8 6 358 349 348 342 337 328 315 293 282 286 296 304 315 321 320 322 319 306 295 291 277 267 255 249 246 241 247 255 262 266 278 280 281 292 297 310 314 329 340 346
357 355 352 348 342 337 329 320 308 302 298 299 294 292 299 301 310 314 310 302 296 288 277 271 261 254 247 240 240 245 250 262 274 264 272 281 292 307 313 322 321 330 342
353 349 345 339 333 328 321 312 306 301 293 286 285 291 292 302 312 310 305 301 293 284 276 267 258 254 243 237 243 247 253 254 254 252 262 288 290 297 306 309 297 311 334
341 335 328 321 318 316 311 304 298 293 289 286 283 284 293 300 305 304 301 296 291 282 270 265 261 255 251 250 244 250 243 246 252 263 275 285 277 295 306 304 288 303 328
339 331 323 317 313 309 304 301 296 290 288 289 291 296 299 301 299 297 294 292 287 278 266 255 255 263 256 257 258 245 241 242 249 261 270 275 277 289 302 290 303 315 327
334 326 319 311 304 300 293 286 280 275 274 277 283 291 293 294 293 292 288 287 274 267 252 247 262 261 263 250 244 244 244 253 263 257 263 267 272 297 285 268 320 328 331
332 323 316 310 303 299 294 287 279 271 271 283 287 287 289 290 290 291 287 276 270 261 258 257 259 258 251 248 246 245 251 263 275 281 241 278 280 315 250 243 322 328 338